timestamp,wind_dir_avg,wind_spd_avg,wind_spd_max_dir,wind_spd_gust,battery_voltage,lat,long
2019-11-15 00:04:01+00:00,3.0,2.97,0.0,3.48,12.57,47.59359,-54.27349
2019-11-15 00:14:01+00:00,1.0,3.51,0.0,4.1,12.57,47.59359,-54.27349
2019-11-15 00:24:01+00:00,359.0,4.05,355.0,5.16,12.57,47.59359,-54.27349
2019-11-15 00:34:01+00:00,15.0,4.01,13.0,4.8,12.57,47.59359,-54.27349
2019-11-15 00:44:01+00:00,10.0,2.9,12.0,3.52,12.57,47.59359,-54.27349
2019-11-15 00:54:01+00:00,33.0,2.64,34.0,3.11,12.57,47.59359,-54.27349
2019-11-15 01:04:01+00:00,12.0,2.39,17.0,3.02,12.57,47.59359,-54.27349
2019-11-15 01:14:01+00:00,21.0,2.76,23.0,3.29,12.57,47.59359,-54.27349
2019-11-15 01:24:01+00:00,22.0,2.48,22.0,3.9,12.57,47.59359,-54.27349
2019-11-15 01:34:01+00:00,10.0,3.37,20.0,4.32,12.57,47.59359,-54.27349
2019-11-15 01:44:01+00:00,357.0,2.66,357.0,3.62,12.57,47.59359,-54.27349
2019-11-15 01:54:01+00:00,11.0,2.85,8.0,3.77,12.57,47.59359,-54.27349
2019-11-15 02:04:01+00:00,346.0,2.21,357.0,3.16,12.57,47.59359,-54.27349
2019-11-15 02:14:01+00:00,8.0,1.88,16.0,2.55,12.49,47.59359,-54.27349
2019-11-15 02:24:01+00:00,8.0,3.01,13.0,3.72,12.49,47.59359,-54.27349
2019-11-15 02:34:01+00:00,4.0,1.85,3.0,2.36,12.49,47.59359,-54.27349
2019-11-15 02:44:01+00:00,24.0,1.64,26.0,2.15,12.49,47.59359,-54.27349
2019-11-15 02:54:01+00:00,358.0,2.21,347.0,2.85,12.49,47.59359,-54.27349
2019-11-15 03:04:01+00:00,3.0,2.12,350.0,2.75,12.49,47.59359,-54.27349
2019-11-15 03:14:01+00:00,6.0,2.32,2.0,3.17,12.49,47.59359,-54.27349
2019-11-15 03:24:01+00:00,4.0,3.08,7.0,4.2,12.49,47.59359,-54.27349
2019-11-15 03:34:01+00:00,6.0,3.14,10.0,4.05,12.49,47.59359,-54.27349
2019-11-15 03:44:01+00:00,359.0,3.07,354.0,3.74,12.49,47.59359,-54.27349
2019-11-15 03:54:01+00:00,354.0,2.73,1.0,3.65,12.49,47.59359,-54.27349
2019-11-15 04:04:01+00:00,349.0,3.68,353.0,4.52,12.49,47.59359,-54.27349
2019-11-15 04:14:01+00:00,356.0,3.07,354.0,3.73,12.49,47.59359,-54.27349
2019-11-15 04:24:01+00:00,344.0,2.18,355.0,2.99,12.49,47.59359,-54.27349
2019-11-15 04:34:01+00:00,24.0,2.09,16.0,2.69,12.49,47.59359,-54.27349
2019-11-15 04:44:01+00:00,24.0,2.9,32.0,3.47,12.49,47.59359,-54.27349
2019-11-15 04:54:01+00:00,26.0,1.5,38.0,1.91,12.49,47.59359,-54.27349
2019-11-15 05:04:01+00:00,66.0,1.22,50.0,2.07,12.49,47.59359,-54.27349
2019-11-15 05:14:01+00:00,57.0,1.42,66.0,1.96,12.49,47.59359,-54.27349
2019-11-15 05:24:01+00:00,100.0,1.18,111.0,1.65,12.49,47.59359,-54.27349
2019-11-15 05:34:01+00:00,38.0,1.21,31.0,1.65,12.49,47.59359,-54.27349
2019-11-15 05:44:01+00:00,44.0,1.27,67.0,2.21,12.49,47.59359,-54.27349
2019-11-15 05:54:01+00:00,340.0,0.69,351.0,1.12,12.49,47.59359,-54.27349
2019-11-15 06:04:01+00:00,273.0,1.32,271.0,1.94,12.49,47.59359,-54.27349
2019-11-15 06:14:01+00:00,255.0,1.86,232.0,2.52,12.41,47.59359,-54.27349
2019-11-15 06:24:01+00:00,236.0,0.72,226.0,1.24,12.41,47.59359,-54.27349
2019-11-15 06:34:01+00:00,149.0,2.09,144.0,2.55,12.41,47.59359,-54.27349
2019-11-15 06:44:01+00:00,159.0,0.88,155.0,1.11,12.41,47.59359,-54.27349
2019-11-15 06:54:01+00:00,223.0,1.07,216.0,1.38,12.41,47.59359,-54.27349
2019-11-15 07:04:01+00:00,241.0,0.5,230.0,0.7,12.41,47.59359,-54.27349
2019-11-15 07:14:01+00:00,186.0,0.95,188.0,1.3,12.41,47.59359,-54.27349
2019-11-15 07:24:01+00:00,180.0,1.88,170.0,2.67,12.41,47.59359,-54.27349
2019-11-15 07:34:01+00:00,174.0,2.68,166.0,3.11,12.41,47.59359,-54.27349
2019-11-15 07:44:01+00:00,200.0,2.03,200.0,2.99,12.41,47.59359,-54.27349
2019-11-15 07:54:01+00:00,194.0,1.92,190.0,2.45,12.41,47.59359,-54.27349
2019-11-15 08:04:01+00:00,179.0,1.64,184.0,3.31,12.41,47.59359,-54.27349
2019-11-15 08:14:01+00:00,195.0,2.03,191.0,2.79,12.41,47.59359,-54.27349
2019-11-15 08:24:01+00:00,242.0,2.76,250.0,3.53,12.41,47.59359,-54.27349
2019-11-15 08:34:01+00:00,256.0,2.15,252.0,3.22,12.41,47.59359,-54.27349
2019-11-15 08:44:01+00:00,247.0,3.44,248.0,4.11,12.41,47.59359,-54.27349
2019-11-15 08:54:01+00:00,236.0,3.45,234.0,4.6,12.41,47.59359,-54.27349
2019-11-15 09:04:01+00:00,224.0,2.9,232.0,3.52,12.41,47.59359,-54.27349
2019-11-15 09:14:01+00:00,242.0,1.67,226.0,2.43,12.41,47.59359,-54.27349
2019-11-15 09:24:01+00:00,195.0,2.61,184.0,3.09,12.41,47.59359,-54.27349
2019-11-15 09:34:01+00:00,217.0,1.86,223.0,2.64,12.41,47.59359,-54.27349
2019-11-15 09:44:01+00:00,223.0,3.94,226.0,4.39,12.41,47.59359,-54.27349
2019-11-15 09:54:01+00:00,232.0,3.59,230.0,4.33,12.41,47.59359,-54.27349
2019-11-15 10:04:01+00:00,244.0,2.8,253.0,3.31,12.41,47.59359,-54.27349
2019-11-15 10:14:01+00:00,251.0,2.89,249.0,3.3,12.41,47.59359,-54.27349
2019-11-15 10:24:01+00:00,271.0,3.95,278.0,5.17,12.41,47.59359,-54.27349
2019-11-15 10:34:01+00:00,267.0,4.43,268.0,5.19,12.41,47.59359,-54.27349
2019-11-15 10:44:01+00:00,356.0,2.61,340.0,3.51,12.41,47.59359,-54.27349
2019-11-15 10:54:01+00:00,145.0,0.12,160.0,0.6,12.41,47.59359,-54.27349
2019-11-15 11:04:01+00:00,357.0,1.37,3.0,2.27,12.41,47.59359,-54.27349
2019-11-15 11:14:01+00:00,12.0,1.61,15.0,2.1,12.33,47.59359,-54.27349
2019-11-15 11:24:01+00:00,15.0,1.46,1.0,1.94,12.33,47.59359,-54.27349
2019-11-15 11:34:01+00:00,350.0,2.4,354.0,2.88,12.33,47.59359,-54.27349
2019-11-15 11:44:01+00:00,5.0,2.13,4.0,2.65,12.33,47.59359,-54.27349
2019-11-15 11:54:01+00:00,18.0,2.58,21.0,2.87,12.33,47.59359,-54.27349
2019-11-15 12:04:01+00:00,32.0,1.2,24.0,1.58,12.33,47.59359,-54.27349
2019-11-15 12:14:01+00:00,311.0,0.72,300.0,1.09,12.65,47.59359,-54.27349
2019-11-15 12:24:01+00:00,37.0,0.86,61.0,1.24,12.65,47.59359,-54.27349
2019-11-15 12:34:01+00:00,33.0,0.71,46.0,1.23,12.65,47.59359,-54.27349
2019-11-15 12:44:01+00:00,197.0,3.47,206.0,4.03,12.65,47.59359,-54.27349
2019-11-15 12:54:01+00:00,193.0,3.81,195.0,4.33,12.65,47.59359,-54.27349
2019-11-15 13:04:01+00:00,180.0,4.39,184.0,4.92,12.65,47.59359,-54.27349
2019-11-15 13:14:01+00:00,203.0,4.02,204.0,4.6,13.37,47.59359,-54.27349
2019-11-15 13:24:01+00:00,196.0,4.54,201.0,5.16,13.37,47.59359,-54.27349
2019-11-15 13:34:01+00:00,203.0,5.71,203.0,6.29,13.37,47.59359,-54.27349
2019-11-15 13:44:01+00:00,172.0,4.68,174.0,5.46,13.37,47.59359,-54.27349
2019-11-15 13:54:01+00:00,181.0,4.72,178.0,5.56,13.37,47.59359,-54.27349
2019-11-15 14:04:01+00:00,170.0,4.96,177.0,6.52,13.37,47.59359,-54.27349
2019-11-15 14:14:01+00:00,187.0,5.21,183.0,6.38,13.21,47.59359,-54.27349
2019-11-15 14:24:01+00:00,227.0,7.13,232.0,8.23,13.21,47.59359,-54.27349
2019-11-15 14:34:01+00:00,224.0,7.31,223.0,7.88,13.21,47.59359,-54.27349
2019-11-15 14:44:01+00:00,228.0,6.09,222.0,7.52,13.21,47.59359,-54.27349
2019-11-15 14:54:01+00:00,227.0,7.11,231.0,8.16,13.21,47.59359,-54.27349
2019-11-15 15:04:01+00:00,217.0,7.51,215.0,8.36,13.21,47.59359,-54.27349
2019-11-15 15:14:01+00:00,241.0,7.28,248.0,8.29,13.21,47.59359,-54.27349
2019-11-15 15:24:01+00:00,230.0,7.61,231.0,8.49,13.21,47.59359,-54.27349
2019-11-15 15:34:01+00:00,232.0,7.2,233.0,8.14,13.21,47.59359,-54.27349
2019-11-15 15:44:01+00:00,213.0,8.21,216.0,9.58,13.21,47.59359,-54.27349
2019-11-15 15:54:01+00:00,224.0,8.52,231.0,10.2,13.21,47.59359,-54.27349
2019-11-15 16:04:01+00:00,213.0,8.01,215.0,8.95,13.21,47.59359,-54.27349
2019-11-15 16:14:01+00:00,213.0,8.56,214.0,9.42,13.37,47.59359,-54.27349
2019-11-15 16:24:01+00:00,218.0,10.16,218.0,11.72,13.37,47.59359,-54.27349
2019-11-15 16:34:01+00:00,216.0,6.12,219.0,6.7,13.37,47.59359,-54.27349
2019-11-15 16:44:01+00:00,205.0,7.04,206.0,10.04,13.37,47.59359,-54.27349
2019-11-15 16:54:01+00:00,239.0,6.78,244.0,7.95,13.37,47.59359,-54.27349
2019-11-15 17:04:01+00:00,213.0,9.76,209.0,11.7,13.37,47.59359,-54.27349
2019-11-15 17:14:01+00:00,217.0,11.53,219.0,12.55,13.13,47.59359,-54.27349
2019-11-15 17:24:01+00:00,211.0,9.97,210.0,10.75,13.13,47.59359,-54.27349
2019-11-15 17:34:01+00:00,198.0,10.67,194.0,11.39,13.13,47.59359,-54.27349
2019-11-15 17:44:01+00:00,200.0,10.97,205.0,12.27,13.13,47.59359,-54.27349
2019-11-15 17:54:01+00:00,199.0,11.08,200.0,12.08,13.13,47.59359,-54.27349
2019-11-15 18:04:01+00:00,207.0,10.27,213.0,12.17,13.13,47.59359,-54.27349
2019-11-15 18:14:01+00:00,203.0,11.56,208.0,12.84,13.21,47.59359,-54.27349
2019-11-15 18:24:01+00:00,202.0,10.69,209.0,11.58,13.21,47.59359,-54.27349
2019-11-15 18:34:01+00:00,209.0,12.58,208.0,13.88,13.21,47.59359,-54.27349
2019-11-15 18:44:01+00:00,213.0,12.64,209.0,13.78,13.21,47.59359,-54.27349
2019-11-15 18:54:01+00:00,214.0,11.13,212.0,12.52,13.21,47.59359,-54.27349
2019-11-15 19:04:01+00:00,207.0,12.25,212.0,14.83,13.21,47.59359,-54.27349
2019-11-15 19:14:01+00:00,210.0,10.82,210.0,12.2,13.29,47.59359,-54.27349
2019-11-15 19:24:01+00:00,201.0,10.79,198.0,12.23,13.29,47.59359,-54.27349
2019-11-15 19:34:01+00:00,210.0,12.3,209.0,13.78,13.29,47.59359,-54.27349
2019-11-15 19:44:01+00:00,197.0,11.86,201.0,13.06,13.29,47.59359,-54.27349
2019-11-15 19:54:01+00:00,196.0,12.08,197.0,15.01,13.29,47.59359,-54.27349
2019-11-15 20:04:01+00:00,198.0,11.42,197.0,13.56,13.29,47.59359,-54.27349
2019-11-15 20:14:01+00:00,195.0,11.37,191.0,13.5,12.81,47.59359,-54.27349
2019-11-15 20:24:01+00:00,199.0,12.19,200.0,13.63,12.81,47.59359,-54.27349
2019-11-15 20:34:01+00:00,197.0,10.33,196.0,11.39,12.81,47.59359,-54.27349
2019-11-15 20:44:01+00:00,201.0,10.79,198.0,12.26,12.81,47.59359,-54.27349
2019-11-15 20:54:01+00:00,199.0,9.86,207.0,11.14,12.81,47.59359,-54.27349
2019-11-15 21:04:01+00:00,203.0,10.35,204.0,11.61,12.81,47.59359,-54.27349
2019-11-15 21:14:01+00:00,206.0,10.43,202.0,11.66,12.65,47.59359,-54.27349
2019-11-15 21:24:01+00:00,197.0,9.17,197.0,11.1,12.65,47.59359,-54.27349
2019-11-15 21:34:01+00:00,191.0,11.78,198.0,13.38,12.65,47.59359,-54.27349
2019-11-15 21:44:01+00:00,197.0,11.69,196.0,13.17,12.65,47.59359,-54.27349
2019-11-15 21:54:01+00:00,192.0,12.93,191.0,15.32,12.65,47.59359,-54.27349
2019-11-15 22:04:01+00:00,189.0,11.66,184.0,13.85,12.65,47.59359,-54.27349
2019-11-15 22:14:01+00:00,200.0,10.67,193.0,11.85,12.57,47.59359,-54.27349
2019-11-15 22:24:01+00:00,204.0,13.11,202.0,14.78,12.57,47.59359,-54.27349
2019-11-15 22:34:01+00:00,202.0,12.49,197.0,15.2,12.57,47.59359,-54.27349
2019-11-15 22:44:01+00:00,204.0,14.49,210.0,15.91,12.57,47.59359,-54.27349
2019-11-15 22:54:01+00:00,205.0,13.66,205.0,15.76,12.57,47.59359,-54.27349
2019-11-15 23:04:01+00:00,207.0,13.56,208.0,15.95,12.57,47.59359,-54.27349
2019-11-15 23:14:01+00:00,200.0,12.57,194.0,13.94,12.57,47.59359,-54.27349
2019-11-15 23:24:01+00:00,196.0,13.03,194.0,14.11,12.57,47.59359,-54.27349
2019-11-15 23:34:01+00:00,198.0,14.29,198.0,16.44,12.57,47.59359,-54.27349
2019-11-15 23:44:01+00:00,196.0,14.63,203.0,16.94,12.57,47.59359,-54.27349
2019-11-15 23:54:01+00:00,202.0,14.6,199.0,18.12,12.57,47.59359,-54.27349
